+ View the NASA Portal
+ Center for Near-Earth Object Studies
IMPORTANT:
The SSD Announcement email list is now available. Major changes are coming in the near future, including possible hostname and/or URL changes. To be notified of such changes, subscribe to this email list.
Please visit
this page
for more details.
Don't show this message again
JPL Small-Body Database Browser
Search:
[
help
]
357460 (2004 EA40)
Classification:
Main-belt Asteroid
SPK-ID:
2357460
[
Ephemeris
|
Orbit Diagram
|
Orbital Elements
|
Mission Design
|
Physical Parameters
|
Discovery Circumstances
|
Close-Approach Data
]
[ show orbit diagram ]
Orbital Elements at Epoch 2458600.5 (2019-Apr-27.0) TDB
Reference:
JPL 14
(heliocentric ecliptic J2000)
Element
Value
Uncertainty (1-sigma)
Units
e
.1974985431676856
5.9575e-08
a
2.679341422799567
2.0565e-08
au
q
2.150175395147818
1.6207e-07
au
i
14.12131269329054
7.5384e-06
deg
node
9.652543932527665
2.1732e-05
deg
peri
197.936105595703
2.7373e-05
deg
M
133.4176574779198
1.8258e-05
deg
t
p
2458006.821495242339
(2017-Sep-10.32149524)
7.7436e-05
TDB
period
1601.918859564211
4.39
1.8443e-05
5.049e-08
d
yr
n
.2247304836013574
2.5874e-09
deg/d
Q
3.208507450451315
2.4627e-08
au
Orbit Determination Parameters
# obs. used (total)
278
data-arc span
5790 days (15.85 yr)
first obs. used
2003-12-25
last obs. used
2019-11-01
planetary ephem.
DE431
SB-pert. ephem.
SB431-N16
condition code
0
norm. resid. RMS
.60206
source
ORB
producer
Otto Matic
solution date
2019-Dec-04 23:21:40
Additional Information
Earth MOID
= 1.15136 au
Jupiter MOID
= 1.77419 au
T_jup
= 3.306
[ show covariance matrix ]
[
Ephemeris
|
Orbit Diagram
|
Orbital Elements
|
Mission Design
|
Physical Parameters
|
Discovery Circumstances
|
Close-Approach Data
]
Physical Parameter Table
Parameter
Symbol
Value
Units
Sigma
Reference
Notes
absolute magnitude
H
16.1
n/a
MPO455580
357460 (2004 EA40)
Discovered 2004-Mar-15 by LINEAR at Socorro
Reference:
20130327/Numbers.arc
Last Updated:
2013-03-29
[ show close-approach data ]
[
Ephemeris
|
Orbit Diagram
|
Orbital Elements
|
Mission Design
|
Physical Parameters
|
Discovery Circumstances
|
Close-Approach Data
]
2019-Dec-14 19:00 UT
(server date/time)
Site Manager:
Ryan S. Park
Webmaster
:
Alan B. Chamberlin